This demonstration page uses our WeatherBlox Daily Observations layout. Learn more.

Left ArrowRight Arrow

39.01783, -85.05884

Hourly Observations for May 5, 2019

Temp ( °F °C ) Dew Point ( °F °C ) Humidity (%) Winds ( mph kmh ) Pressure ( in mb ) Visibility ( mi km ) Precip ( " mm )
12:52 am 00:52 Cloudy 55 12.8 52 11.1 90 90 N 13 20 29.83 1010 8 13 0.00 0.00
1:52 am 01:52 Cloudy 54 12.2 51 10.6 90 90 N 8 13 29.82 1010 9 14 0.00 0.00
2:52 am 02:52 Cloudy 54 12.2 51 10.6 90 90 N 13 20 29.80 1009 8 13 0.00 0.00
3:52 am 03:52 Cloudy 53 11.7 50 10 89 89 N 10 17 29.80 1009 7 11 0.00 0.00
4:52 am 04:52 Cloudy 53 11.7 50 10 89 89 N 12 19 29.80 1009 8 13 0.00 0.00
5:52 am 05:52 Cloudy 53 11.7 49 9.4 86 86 NNE 9 15 29.80 1009 9 14 0.00 0.00
6:52 am 06:52 Cloudy 53 11.7 49 9.4 86 86 N 9 15 29.80 1009 8 13 0.00 0.00
7:52 am 07:52 Cloudy 53 11.7 49 9.4 86 86 N 8 13 29.82 1010 8 13 0.00 0.00
8:52 am 08:52 Cloudy 54 12.2 50 10 87 87 N 10 17 29.84 1011 9 14 0.00 0.00
9:52 am 09:52 Cloudy 55 12.8 50 10 83 83 N 9 15 29.85 1011 10 16 0.00 0.00
10:52 am 10:52 Cloudy 56 13.3 50 10 81 81 N 10 17 29.86 1011 10 16 0.00 0.00
11:52 am 11:52 Mostly Cloudy 59 15 50 10 72 72 N 9 15 29.87 1012 10 16 0.00 0.00
12:43 pm 12:43 Partly Cloudy 63 17.2 51 10.6 65 65 NNW 10 17 29.88 1012 10 16 0.00 0.00
12:52 pm 12:52 Partly Cloudy 62 16.7 51 10.6 67 67 NNW 10 17 29.87 1012 10 16 0.00 0.00
1:52 pm 13:52 Mostly Sunny 64 17.8 50 10 60 60 NNW 9 15 29.87 1012 10 16 0.00 0.00
2:52 pm 14:52 Mostly Sunny 67 19.4 49 9.4 53 53 NNW 13 20 29.85 1011 10 16 0.00 0.00
3:52 pm 15:52 Mostly Sunny 68 20 46 7.8 45 45 N 8 13 29.85 1011 10 16 0.00 0.00
4:52 pm 16:52 Mostly Sunny 70 21.1 43 6.1 38 38 NNW 8 13 29.85 1011 10 16 0.00 0.00
5:52 pm 17:52 Partly Cloudy 70 21.1 42 5.6 37 37 N 13 20 29.85 1011 10 16 0.00 0.00
6:52 pm 18:52 Partly Cloudy 69 20.6 40 4.4 35 35 NNE 9 15 29.86 1011 10 16 0.00 0.00
7:52 pm 19:52 Partly Cloudy 67 19.4 41 5 39 39 NNW 5 7 29.88 1012 10 16 0.00 0.00
8:52 pm 20:52 Partly Cloudy 62 16.7 43 6.1 50 50 Calm 29.88 1012 10 16 0.00 0.00
9:52 pm 21:52 Partly Cloudy 58 14.4 45 7.2 62 62 NNW 3 6 29.91 1013 10 16 0.00 0.00
10:52 pm 22:52 Partly Cloudy 59 15 43 6.1 56 56 N 6 9 29.92 1013 10 16 0.00 0.00
11:52 pm 23:52 Mostly Clear 58 14.4 43 6.1 58 58 Calm 29.93 1014 10 16 0.00 0.00

Powered by AerisWeather